Year,Month,Day,Hour,Minute,Value (Times are PST for temperature in C)
2006,05,18,00,00,14.70
2006,05,18,00,01,14.70
2006,05,18,00,02,14.80
2006,05,18,00,03,14.80
2006,05,18,00,04,14.90
2006,05,18,00,05,14.90
2006,05,18,00,06,14.90
2006,05,18,00,07,14.90
2006,05,18,00,08,14.90
2006,05,18,00,09,14.90
2006,05,18,00,10,15.00
2006,05,18,00,11,15.00
2006,05,18,00,12,15.10
2006,05,18,00,13,15.10
2006,05,18,00,14,15.10
2006,05,18,00,15,15.10
2006,05,18,00,16,15.00
2006,05,18,00,17,14.80
2006,05,18,00,18,14.60
2006,05,18,00,19,14.40
2006,05,18,00,20,14.20
2006,05,18,00,21,14.20
2006,05,18,00,22,14.20
2006,05,18,00,23,14.20
2006,05,18,00,24,14.10
2006,05,18,00,25,14.10
2006,05,18,00,26,14.00
2006,05,18,00,27,13.90
2006,05,18,00,28,13.90
2006,05,18,00,29,13.90
2006,05,18,00,30,13.90
2006,05,18,00,31,13.90
2006,05,18,00,32,13.90
2006,05,18,00,33,13.90
2006,05,18,00,34,13.90
2006,05,18,00,35,13.90
2006,05,18,00,36,13.90
2006,05,18,00,37,13.90
2006,05,18,00,38,13.90
2006,05,18,00,39,13.90
2006,05,18,00,40,13.90
2006,05,18,00,41,13.90
2006,05,18,00,42,13.90
2006,05,18,00,43,13.90
2006,05,18,00,44,13.90
2006,05,18,00,45,13.90
2006,05,18,00,46,13.90
2006,05,18,00,47,13.90
2006,05,18,00,48,13.90
2006,05,18,00,49,13.90
2006,05,18,00,50,13.90
2006,05,18,00,51,13.90
2006,05,18,00,52,13.90
2006,05,18,00,53,13.90
2006,05,18,00,54,13.90
2006,05,18,00,55,13.90
2006,05,18,00,56,13.90
2006,05,18,00,57,13.90
2006,05,18,00,58,13.90
2006,05,18,00,59,13.90
2006,05,18,01,00,13.90
2006,05,18,01,01,13.90
2006,05,18,01,02,13.90
2006,05,18,01,03,13.90
2006,05,18,01,04,13.90
2006,05,18,01,05,13.90
2006,05,18,01,06,13.90
2006,05,18,01,07,13.90
2006,05,18,01,08,13.90
2006,05,18,01,09,13.90
2006,05,18,01,10,13.90
2006,05,18,01,11,13.90
2006,05,18,01,12,13.90
2006,05,18,01,13,13.90
2006,05,18,01,14,13.90
2006,05,18,01,15,13.90
2006,05,18,01,16,13.90
2006,05,18,01,17,14.00
2006,05,18,01,18,14.00
2006,05,18,01,19,14.00
2006,05,18,01,20,14.00
2006,05,18,01,21,14.00
2006,05,18,01,22,14.00
2006,05,18,01,23,14.00
2006,05,18,01,24,14.00
2006,05,18,01,25,13.90
2006,05,18,01,26,13.90
2006,05,18,01,27,13.80
2006,05,18,01,28,13.80
2006,05,18,01,29,13.80
2006,05,18,01,30,13.80
2006,05,18,01,31,13.80
2006,05,18,01,32,13.70
2006,05,18,01,33,13.70
2006,05,18,01,34,13.70
2006,05,18,01,35,13.70
2006,05,18,01,36,13.70
2006,05,18,01,37,13.60
2006,05,18,01,38,13.60
2006,05,18,01,39,13.60
2006,05,18,01,40,13.60
2006,05,18,01,41,13.60
2006,05,18,01,42,13.60
2006,05,18,01,43,13.60
2006,05,18,01,44,13.60
2006,05,18,01,45,13.70
2006,05,18,01,46,13.70
2006,05,18,01,47,13.70
2006,05,18,01,48,13.70
2006,05,18,01,49,13.70
2006,05,18,01,50,13.70
2006,05,18,01,51,13.60
2006,05,18,01,52,13.60
2006,05,18,01,53,13.60
2006,05,18,01,54,13.50
2006,05,18,01,55,13.50
2006,05,18,01,56,13.50
2006,05,18,01,57,13.40
2006,05,18,01,58,13.40
2006,05,18,01,59,13.40
2006,05,18,02,00,13.40
2006,05,18,02,01,13.40
2006,05,18,02,02,13.30
2006,05,18,02,03,13.30
2006,05,18,02,04,13.30
2006,05,18,02,05,13.30
2006,05,18,02,06,13.30
2006,05,18,02,07,13.20
2006,05,18,02,08,13.20
2006,05,18,02,09,13.20
2006,05,18,02,10,13.20
2006,05,18,02,11,13.20
2006,05,18,02,12,13.20
2006,05,18,02,13,13.20
2006,05,18,02,14,13.20
2006,05,18,02,15,13.20
2006,05,18,02,16,13.20
2006,05,18,02,17,13.10
2006,05,18,02,18,13.10
2006,05,18,02,19,13.10
2006,05,18,02,20,13.10
2006,05,18,02,21,13.10
2006,05,18,02,22,13.10
2006,05,18,02,23,13.00
2006,05,18,02,24,13.00
2006,05,18,02,25,13.00
2006,05,18,02,26,13.00
2006,05,18,02,27,13.00
2006,05,18,02,28,13.00
2006,05,18,02,29,13.00
2006,05,18,02,30,13.00
2006,05,18,02,31,12.90
2006,05,18,02,32,13.00
2006,05,18,02,33,13.00
2006,05,18,02,34,13.00
2006,05,18,02,35,13.00
2006,05,18,02,36,13.00
2006,05,18,02,37,13.00
2006,05,18,02,38,12.90
2006,05,18,02,39,12.90
2006,05,18,02,40,12.90
2006,05,18,02,41,12.80
2006,05,18,02,42,12.80
2006,05,18,02,43,12.80
2006,05,18,02,44,12.80
2006,05,18,02,45,12.80
2006,05,18,02,46,12.80
2006,05,18,02,47,12.80
2006,05,18,02,48,12.80
2006,05,18,02,49,12.80
2006,05,18,02,50,12.80
2006,05,18,02,51,12.80
2006,05,18,02,52,12.80
2006,05,18,02,53,12.80
2006,05,18,02,54,12.80
2006,05,18,02,55,12.80
2006,05,18,02,56,12.80
2006,05,18,02,57,12.80
2006,05,18,02,58,12.80
2006,05,18,02,59,12.80
2006,05,18,03,00,12.80
2006,05,18,03,01,12.80
2006,05,18,03,02,12.90
2006,05,18,03,03,12.90
2006,05,18,03,04,12.90
2006,05,18,03,05,12.90
2006,05,18,03,06,12.90
2006,05,18,03,07,13.00
2006,05,18,03,08,13.00
2006,05,18,03,09,13.00
2006,05,18,03,10,13.00
2006,05,18,03,11,13.00
2006,05,18,03,12,13.00
2006,05,18,03,13,13.10
2006,05,18,03,14,13.10
2006,05,18,03,15,13.10
2006,05,18,03,16,13.10
2006,05,18,03,17,13.10
2006,05,18,03,18,13.00
2006,05,18,03,19,13.00
2006,05,18,03,20,12.90
2006,05,18,03,21,12.90
2006,05,18,03,22,12.90
2006,05,18,03,23,12.90
2006,05,18,03,24,13.00
2006,05,18,03,25,13.00
2006,05,18,03,26,13.00
2006,05,18,03,27,13.00
2006,05,18,03,28,13.00
2006,05,18,03,29,13.00
2006,05,18,03,30,13.10
2006,05,18,03,31,13.00
2006,05,18,03,32,13.00
2006,05,18,03,33,13.00
2006,05,18,03,34,13.00
2006,05,18,03,35,13.00
2006,05,18,03,36,13.00
2006,05,18,03,37,13.00
2006,05,18,03,38,13.00
2006,05,18,03,39,12.90
2006,05,18,03,40,12.80
2006,05,18,03,41,12.70
2006,05,18,03,42,12.60
2006,05,18,03,43,12.60
2006,05,18,03,44,12.50
2006,05,18,03,45,12.50
2006,05,18,03,46,12.40
2006,05,18,03,47,12.40
2006,05,18,03,48,12.40
2006,05,18,03,49,12.40
2006,05,18,03,50,12.40
2006,05,18,03,51,12.30
2006,05,18,03,52,12.30
2006,05,18,03,53,12.30
2006,05,18,03,54,12.20
2006,05,18,03,55,12.10
2006,05,18,03,56,12.00
2006,05,18,03,57,11.90
2006,05,18,03,58,11.90
2006,05,18,03,59,11.90
2006,05,18,04,00,11.90
2006,05,18,04,01,11.80
2006,05,18,04,02,11.80
2006,05,18,04,03,11.80
2006,05,18,04,04,11.80
2006,05,18,04,05,11.80
2006,05,18,04,06,11.90
2006,05,18,04,07,11.90
2006,05,18,04,08,11.90
2006,05,18,04,09,12.00
2006,05,18,04,10,12.00
2006,05,18,04,11,12.00
2006,05,18,04,12,12.00
2006,05,18,04,13,12.00
2006,05,18,04,14,12.00
2006,05,18,04,15,12.00
2006,05,18,04,16,12.00
2006,05,18,04,17,12.00
2006,05,18,04,18,12.00
2006,05,18,04,19,12.00
2006,05,18,04,20,12.00
2006,05,18,04,21,12.00
2006,05,18,04,22,12.00
2006,05,18,04,23,12.00
2006,05,18,04,24,12.00
2006,05,18,04,25,12.00
2006,05,18,04,26,12.10
2006,05,18,04,27,12.10
2006,05,18,04,28,12.20
2006,05,18,04,29,12.20
2006,05,18,04,30,12.10
2006,05,18,04,31,12.00
2006,05,18,04,32,12.00
2006,05,18,04,33,12.00
2006,05,18,04,34,12.00
2006,05,18,04,35,12.00
2006,05,18,04,36,12.00
2006,05,18,04,37,12.00
2006,05,18,04,38,12.00
2006,05,18,04,39,12.00
2006,05,18,04,40,12.00
2006,05,18,04,41,11.90
2006,05,18,04,42,11.90
2006,05,18,04,43,11.90
2006,05,18,04,44,11.80
2006,05,18,04,45,11.80
2006,05,18,04,46,11.80
2006,05,18,04,47,11.90
2006,05,18,04,48,11.90
2006,05,18,04,49,11.90
2006,05,18,04,50,11.90
2006,05,18,04,51,11.80
2006,05,18,04,52,11.80
2006,05,18,04,53,11.80
2006,05,18,04,54,11.80
2006,05,18,04,55,11.80
2006,05,18,04,56,11.70
2006,05,18,04,57,11.70
2006,05,18,04,58,11.60
2006,05,18,04,59,11.60
2006,05,18,05,00,11.60
2006,05,18,05,01,11.60
2006,05,18,05,02,11.60
2006,05,18,05,03,11.70
2006,05,18,05,04,11.70
2006,05,18,05,05,11.60
2006,05,18,05,06,11.60
2006,05,18,05,07,11.60
2006,05,18,05,08,11.60
2006,05,18,05,09,11.60
2006,05,18,05,10,11.60
2006,05,18,05,11,11.60
2006,05,18,05,12,11.60
2006,05,18,05,13,11.60
2006,05,18,05,14,11.60
2006,05,18,05,15,11.70
2006,05,18,05,16,11.80
2006,05,18,05,17,11.80
2006,05,18,05,18,11.70
2006,05,18,05,19,11.60
2006,05,18,05,20,11.40
2006,05,18,05,21,11.40
2006,05,18,05,22,11.40
2006,05,18,05,23,11.40
2006,05,18,05,24,11.40
2006,05,18,05,25,11.40
2006,05,18,05,26,11.40
2006,05,18,05,27,11.40
2006,05,18,05,28,11.40
2006,05,18,05,29,11.40
2006,05,18,05,30,11.30
2006,05,18,05,31,11.30
2006,05,18,05,32,11.20
2006,05,18,05,33,11.30
2006,05,18,05,34,11.30
2006,05,18,05,35,11.20
2006,05,18,05,36,11.10
2006,05,18,05,37,11.00
2006,05,18,05,38,10.90
2006,05,18,05,39,10.80
2006,05,18,05,40,10.80
2006,05,18,05,41,10.70
2006,05,18,05,42,10.70
2006,05,18,05,43,10.60
2006,05,18,05,44,10.60
2006,05,18,05,45,10.60
2006,05,18,05,46,10.70
2006,05,18,05,47,10.70
2006,05,18,05,48,10.70
2006,05,18,05,49,10.60
2006,05,18,05,50,10.60
2006,05,18,05,51,10.60
2006,05,18,05,52,10.60
2006,05,18,05,53,10.60
2006,05,18,05,54,10.60
2006,05,18,05,55,10.70
2006,05,18,05,56,10.70
2006,05,18,05,57,10.70
2006,05,18,05,58,10.80
2006,05,18,05,59,11.00
2006,05,18,06,00,11.10
2006,05,18,06,01,11.10
2006,05,18,06,02,11.10
2006,05,18,06,03,11.10
2006,05,18,06,04,11.10
2006,05,18,06,05,11.20
2006,05,18,06,06,11.30
2006,05,18,06,07,11.40
2006,05,18,06,08,11.40
2006,05,18,06,09,11.50
2006,05,18,06,10,11.60
2006,05,18,06,11,11.70
2006,05,18,06,12,11.80
2006,05,18,06,13,11.80
2006,05,18,06,14,11.90
2006,05,18,06,15,11.90
2006,05,18,06,16,11.90
2006,05,18,06,17,11.90
2006,05,18,06,18,11.90
2006,05,18,06,19,11.90
2006,05,18,06,20,11.80
2006,05,18,06,21,11.80
2006,05,18,06,22,11.90
2006,05,18,06,23,12.00
2006,05,18,06,24,12.10
2006,05,18,06,25,12.10
2006,05,18,06,26,12.20
2006,05,18,06,27,12.20
2006,05,18,06,28,12.20
2006,05,18,06,29,12.20
2006,05,18,06,30,12.30
2006,05,18,06,31,12.30
2006,05,18,06,32,12.40
2006,05,18,06,33,12.50
2006,05,18,06,34,12.60
2006,05,18,06,35,12.70
2006,05,18,06,36,12.70
2006,05,18,06,37,12.90
2006,05,18,06,38,13.00
2006,05,18,06,39,13.10
2006,05,18,06,40,13.10
2006,05,18,06,41,13.20
2006,05,18,06,42,13.30
2006,05,18,06,43,13.30
2006,05,18,06,44,13.30
2006,05,18,06,45,13.30
2006,05,18,06,46,13.40
2006,05,18,06,47,13.40
2006,05,18,06,48,13.40
2006,05,18,06,49,13.50
2006,05,18,06,50,13.50
2006,05,18,06,51,13.60
2006,05,18,06,52,13.60
2006,05,18,06,53,13.70
2006,05,18,06,54,13.70
2006,05,18,06,55,13.70
2006,05,18,06,56,13.70
2006,05,18,06,57,13.70
2006,05,18,06,58,13.80
2006,05,18,06,59,13.80
2006,05,18,07,00,13.90
2006,05,18,07,01,13.90
2006,05,18,07,02,14.00
2006,05,18,07,03,14.00
2006,05,18,07,04,14.10
2006,05,18,07,05,14.10
2006,05,18,07,06,14.20
2006,05,18,07,07,14.40
2006,05,18,07,08,14.50
2006,05,18,07,09,14.60
2006,05,18,07,10,14.70
2006,05,18,07,11,14.80
2006,05,18,07,12,14.90
2006,05,18,07,13,15.00
2006,05,18,07,14,15.10
2006,05,18,07,15,15.30
2006,05,18,07,16,15.30
2006,05,18,07,17,15.40
2006,05,18,07,18,15.50
2006,05,18,07,19,15.50
2006,05,18,07,20,15.60
2006,05,18,07,21,15.70
2006,05,18,07,22,15.70
2006,05,18,07,23,15.80
2006,05,18,07,24,15.80
2006,05,18,07,25,15.80
2006,05,18,07,26,15.90
2006,05,18,07,27,15.90
2006,05,18,07,28,16.10
2006,05,18,07,29,16.10
2006,05,18,07,30,16.20
2006,05,18,07,31,16.30
2006,05,18,07,32,16.40
2006,05,18,07,33,16.30
2006,05,18,07,34,16.20
2006,05,18,07,35,16.10
2006,05,18,07,36,16.20
2006,05,18,07,37,16.30
2006,05,18,07,38,16.40
2006,05,18,07,39,16.40
2006,05,18,07,40,16.40
2006,05,18,07,41,16.40
2006,05,18,07,42,16.40
2006,05,18,07,43,16.40
2006,05,18,07,44,16.30
2006,05,18,07,45,16.30
2006,05,18,07,46,16.30
2006,05,18,07,47,16.50
2006,05,18,07,48,16.60
2006,05,18,07,49,16.70
2006,05,18,07,50,16.80
2006,05,18,07,51,16.90
2006,05,18,07,52,16.90
2006,05,18,07,53,17.00
2006,05,18,07,54,17.00
2006,05,18,07,55,17.00
2006,05,18,07,56,17.10
2006,05,18,07,57,17.30
2006,05,18,07,58,17.30
2006,05,18,07,59,17.40
2006,05,18,08,00,17.50
2006,05,18,08,01,17.60
2006,05,18,08,02,17.60
2006,05,18,08,03,17.60
2006,05,18,08,04,17.60
2006,05,18,08,05,17.70
2006,05,18,08,06,17.70
2006,05,18,08,07,17.70
2006,05,18,08,08,17.60
2006,05,18,08,09,17.60
2006,05,18,08,10,17.50
2006,05,18,08,11,17.30
2006,05,18,08,12,17.20
2006,05,18,08,13,17.10
2006,05,18,08,14,17.00
2006,05,18,08,15,17.00
2006,05,18,08,16,16.90
2006,05,18,08,17,16.90
2006,05,18,08,18,16.90
2006,05,18,08,19,16.90
2006,05,18,08,20,16.90
2006,05,18,08,21,16.90
2006,05,18,08,22,16.90
2006,05,18,08,23,16.80
2006,05,18,08,24,16.80
2006,05,18,08,25,16.90
2006,05,18,08,26,16.90
2006,05,18,08,27,16.90
2006,05,18,08,28,17.00
2006,05,18,08,29,17.20
2006,05,18,08,30,17.20
2006,05,18,08,31,17.20
2006,05,18,08,32,17.20
2006,05,18,08,33,17.20
2006,05,18,08,34,17.10
2006,05,18,08,35,17.10
2006,05,18,08,36,17.10
2006,05,18,08,37,17.00
2006,05,18,08,38,17.00
2006,05,18,08,39,16.90
2006,05,18,08,40,16.90
2006,05,18,08,41,16.90
2006,05,18,08,42,16.90
2006,05,18,08,43,16.90
2006,05,18,08,44,16.80
2006,05,18,08,45,16.80
2006,05,18,08,46,16.80
2006,05,18,08,47,16.80
2006,05,18,08,48,16.90
2006,05,18,08,49,16.90
2006,05,18,08,50,17.00
2006,05,18,08,51,17.00
2006,05,18,08,52,17.00
2006,05,18,08,53,17.00
2006,05,18,08,54,17.00
2006,05,18,08,55,17.00
2006,05,18,08,56,17.00
2006,05,18,08,57,17.00
2006,05,18,08,58,17.00
2006,05,18,08,59,17.10
2006,05,18,09,00,17.20
2006,05,18,09,01,17.20
2006,05,18,09,02,17.20
2006,05,18,09,03,17.20
2006,05,18,09,04,17.20
2006,05,18,09,05,17.30
2006,05,18,09,06,17.30
2006,05,18,09,07,17.30
2006,05,18,09,08,17.30
2006,05,18,09,09,17.30
2006,05,18,09,10,17.30
2006,05,18,09,11,17.30
2006,05,18,09,12,17.40
2006,05,18,09,13,17.40
2006,05,18,09,14,17.40
2006,05,18,09,15,17.40
2006,05,18,09,16,17.40
2006,05,18,09,17,17.50
2006,05,18,09,18,17.50
2006,05,18,09,19,17.50
2006,05,18,09,20,17.50
2006,05,18,09,21,17.50
2006,05,18,09,22,17.40
2006,05,18,09,23,17.30
2006,05,18,09,24,17.30
2006,05,18,09,25,17.40
2006,05,18,09,26,17.40
2006,05,18,09,27,17.40
2006,05,18,09,28,17.40
2006,05,18,09,29,17.50
2006,05,18,09,30,17.60
2006,05,18,09,31,17.70
2006,05,18,09,32,17.80
2006,05,18,09,33,17.90
2006,05,18,09,34,17.90
2006,05,18,09,35,17.80
2006,05,18,09,36,17.80
2006,05,18,09,37,17.70
2006,05,18,09,38,17.70
2006,05,18,09,39,17.70
2006,05,18,09,40,17.70
2006,05,18,09,41,17.60
2006,05,18,09,42,17.60
2006,05,18,09,43,17.50
2006,05,18,09,44,17.40
2006,05,18,09,45,17.30
2006,05,18,09,46,17.30
2006,05,18,09,47,17.30
2006,05,18,09,48,17.40
2006,05,18,09,49,17.50
2006,05,18,09,50,17.40
2006,05,18,09,51,17.30
2006,05,18,09,52,17.30
2006,05,18,09,53,17.30
2006,05,18,09,54,17.30
2006,05,18,09,55,17.30
2006,05,18,09,56,17.30
2006,05,18,09,57,17.30
2006,05,18,09,58,17.30
2006,05,18,09,59,17.10
2006,05,18,10,00,17.10
2006,05,18,10,01,17.10
2006,05,18,10,02,17.20
2006,05,18,10,03,17.20
2006,05,18,10,04,17.20
2006,05,18,10,05,17.30
2006,05,18,10,06,17.20
2006,05,18,10,07,17.00
2006,05,18,10,08,17.00
2006,05,18,10,09,17.00
2006,05,18,10,10,16.90
2006,05,18,10,11,17.00
2006,05,18,10,12,17.20
2006,05,18,10,13,17.30
2006,05,18,10,14,17.30
2006,05,18,10,15,17.20
2006,05,18,10,16,17.20
2006,05,18,10,17,17.30
2006,05,18,10,18,17.40
2006,05,18,10,19,17.40
2006,05,18,10,20,17.40
2006,05,18,10,21,17.30
2006,05,18,10,22,17.30
2006,05,18,10,23,17.40
2006,05,18,10,24,17.40
2006,05,18,10,25,17.60
2006,05,18,10,26,17.70
2006,05,18,10,27,17.80
2006,05,18,10,28,17.80
2006,05,18,10,29,17.90
2006,05,18,10,30,17.80
2006,05,18,10,31,17.70
2006,05,18,10,32,17.70
2006,05,18,10,33,17.80
2006,05,18,10,34,17.90
2006,05,18,10,35,18.00
2006,05,18,10,36,18.20
2006,05,18,10,37,18.20
2006,05,18,10,38,18.20
2006,05,18,10,39,18.40
2006,05,18,10,40,18.40
2006,05,18,10,41,18.40
2006,05,18,10,42,18.30
2006,05,18,10,43,18.30
2006,05,18,10,44,18.50
2006,05,18,10,45,18.50
2006,05,18,10,46,18.50
2006,05,18,10,47,18.60
2006,05,18,10,48,18.60
2006,05,18,10,49,18.60
2006,05,18,10,50,18.50
2006,05,18,10,51,18.50
2006,05,18,10,52,18.40
2006,05,18,10,53,18.10
2006,05,18,10,54,17.90
2006,05,18,10,55,17.90
2006,05,18,10,56,17.90
2006,05,18,10,57,18.00
2006,05,18,10,58,18.20
2006,05,18,10,59,18.40
2006,05,18,11,00,18.50
2006,05,18,11,01,18.70
2006,05,18,11,02,18.70
2006,05,18,11,03,18.80
2006,05,18,11,04,18.70
2006,05,18,11,05,18.70
2006,05,18,11,06,18.80
2006,05,18,11,07,18.80
2006,05,18,11,08,18.80
2006,05,18,11,09,18.80
2006,05,18,11,10,18.70
2006,05,18,11,11,18.60
2006,05,18,11,12,18.50
2006,05,18,11,13,18.40
2006,05,18,11,14,18.20
2006,05,18,11,15,18.10
2006,05,18,11,16,18.00
2006,05,18,11,17,17.90
2006,05,18,11,18,17.80
2006,05,18,11,19,17.80
2006,05,18,11,20,17.70
2006,05,18,11,21,17.70
2006,05,18,11,22,17.60
2006,05,18,11,23,17.60
2006,05,18,11,24,17.60
2006,05,18,11,25,17.60
2006,05,18,11,26,17.70
2006,05,18,11,27,17.70
2006,05,18,11,28,17.80
2006,05,18,11,29,17.70
2006,05,18,11,30,17.70
2006,05,18,11,31,17.90
2006,05,18,11,32,18.10
2006,05,18,11,33,18.30
2006,05,18,11,34,18.40
2006,05,18,11,35,18.50
2006,05,18,11,36,18.60
2006,05,18,11,37,18.80
2006,05,18,11,38,19.00
2006,05,18,11,39,19.10
2006,05,18,11,40,19.20
2006,05,18,11,41,19.40
2006,05,18,11,42,19.50
2006,05,18,11,43,19.70
2006,05,18,11,44,19.90
2006,05,18,11,45,19.90
2006,05,18,11,46,20.00
2006,05,18,11,47,20.10
2006,05,18,11,48,20.10
2006,05,18,11,49,20.00
2006,05,18,11,50,19.90
2006,05,18,11,51,19.90
2006,05,18,11,52,19.90
2006,05,18,11,53,20.10
2006,05,18,11,54,20.30
2006,05,18,11,55,20.50
2006,05,18,11,56,20.70
2006,05,18,11,57,20.60
2006,05,18,11,58,20.60
2006,05,18,11,59,20.30
2006,05,18,12,00,19.90
2006,05,18,12,01,19.70
2006,05,18,12,02,19.40
2006,05,18,12,03,19.20
2006,05,18,12,04,19.00
2006,05,18,12,05,18.80
2006,05,18,12,06,18.50
2006,05,18,12,07,18.30
2006,05,18,12,08,18.10
2006,05,18,12,09,18.10
2006,05,18,12,10,18.20
2006,05,18,12,11,18.30
2006,05,18,12,12,18.30
2006,05,18,12,13,18.20
2006,05,18,12,14,18.00
2006,05,18,12,15,17.90
2006,05,18,12,16,17.90
2006,05,18,12,17,17.90
2006,05,18,12,18,17.90
2006,05,18,12,19,17.90
2006,05,18,12,20,18.10
2006,05,18,12,21,18.40
2006,05,18,12,22,18.60
2006,05,18,12,23,18.70
2006,05,18,12,24,18.60
2006,05,18,12,25,18.50
2006,05,18,12,26,18.40
2006,05,18,12,27,18.30
2006,05,18,12,28,18.20
2006,05,18,12,29,18.20
2006,05,18,12,30,18.30
2006,05,18,12,31,18.50
2006,05,18,12,32,18.60
2006,05,18,12,33,18.60
2006,05,18,12,34,18.50
2006,05,18,12,35,18.40
2006,05,18,12,36,18.30
2006,05,18,12,37,18.30
2006,05,18,12,38,18.40
2006,05,18,12,39,18.60
2006,05,18,12,40,18.80
2006,05,18,12,41,18.90
2006,05,18,12,42,19.10
2006,05,18,12,43,19.10
2006,05,18,12,44,19.10
2006,05,18,12,45,19.20
2006,05,18,12,46,19.40
2006,05,18,12,47,19.50
2006,05,18,12,48,19.50
2006,05,18,12,49,19.50
2006,05,18,12,50,19.60
2006,05,18,12,51,19.50
2006,05,18,12,52,19.50
2006,05,18,12,53,19.60
2006,05,18,12,54,19.60
2006,05,18,12,55,19.80
2006,05,18,12,56,19.90
2006,05,18,12,57,19.90
2006,05,18,12,58,19.90
2006,05,18,12,59,19.60
2006,05,18,13,00,19.50
2006,05,18,13,01,19.40
2006,05,18,13,02,19.20
2006,05,18,13,03,19.10
2006,05,18,13,04,19.10
2006,05,18,13,05,19.10
2006,05,18,13,06,18.90
2006,05,18,13,07,18.90
2006,05,18,13,08,18.90
2006,05,18,13,09,18.90
2006,05,18,13,10,18.90
2006,05,18,13,11,19.00
2006,05,18,13,12,19.10
2006,05,18,13,13,19.10
2006,05,18,13,14,19.10
2006,05,18,13,15,19.20
2006,05,18,13,16,19.40
2006,05,18,13,17,19.70
2006,05,18,13,18,20.00
2006,05,18,13,19,20.20
2006,05,18,13,20,20.20
2006,05,18,13,21,20.30
2006,05,18,13,22,20.40
2006,05,18,13,23,20.60
2006,05,18,13,24,20.70
2006,05,18,13,25,20.70
2006,05,18,13,26,20.50
2006,05,18,13,27,20.30
2006,05,18,13,28,20.10
2006,05,18,13,29,19.90
2006,05,18,13,30,19.80
2006,05,18,13,31,19.80
2006,05,18,13,32,19.80
2006,05,18,13,33,19.90
2006,05,18,13,34,19.90
2006,05,18,13,35,20.00
2006,05,18,13,36,20.10
2006,05,18,13,37,20.00
2006,05,18,13,38,19.90
2006,05,18,13,39,19.90
2006,05,18,13,40,20.00
2006,05,18,13,41,20.10
2006,05,18,13,42,19.90
2006,05,18,13,43,19.90
2006,05,18,13,44,19.90
2006,05,18,13,45,19.90
2006,05,18,13,46,19.90
2006,05,18,13,47,19.90
2006,05,18,13,48,19.90
2006,05,18,13,49,19.90
2006,05,18,13,50,19.80
2006,05,18,13,51,19.70
2006,05,18,13,52,19.70
2006,05,18,13,53,19.70
2006,05,18,13,54,19.80
2006,05,18,13,55,19.80
2006,05,18,13,56,19.90
2006,05,18,13,57,19.90
2006,05,18,13,58,19.90
2006,05,18,13,59,19.90
2006,05,18,14,00,20.10
2006,05,18,14,01,20.10
2006,05,18,14,02,20.10
2006,05,18,14,03,20.20
2006,05,18,14,04,20.20
2006,05,18,14,05,20.20
2006,05,18,14,06,20.20
2006,05,18,14,07,20.20
2006,05,18,14,08,20.30
2006,05,18,14,09,20.50
2006,05,18,14,10,20.70
2006,05,18,14,11,20.60
2006,05,18,14,12,20.50
2006,05,18,14,13,20.40
2006,05,18,14,14,20.50
2006,05,18,14,15,20.60
2006,05,18,14,16,20.40
2006,05,18,14,17,20.30
2006,05,18,14,18,20.30
2006,05,18,14,19,20.40
2006,05,18,14,20,20.50
2006,05,18,14,21,20.80
2006,05,18,14,22,21.10
2006,05,18,14,23,21.40
2006,05,18,14,24,21.70
2006,05,18,14,25,21.90
2006,05,18,14,26,22.10
2006,05,18,14,27,22.20
2006,05,18,14,28,22.40
2006,05,18,14,29,22.70
2006,05,18,14,30,22.80
2006,05,18,14,31,22.80
2006,05,18,14,32,22.80
2006,05,18,14,33,22.90
2006,05,18,14,34,23.10
2006,05,18,14,35,23.30
2006,05,18,14,36,23.60
2006,05,18,14,37,23.80
2006,05,18,14,38,23.90
2006,05,18,14,39,23.90
2006,05,18,14,40,23.80
2006,05,18,14,41,23.60
2006,05,18,14,42,23.30
2006,05,18,14,43,23.10
2006,05,18,14,44,23.10
2006,05,18,14,45,23.00
2006,05,18,14,46,22.90
2006,05,18,14,47,22.70
2006,05,18,14,48,22.50
2006,05,18,14,49,22.30
2006,05,18,14,50,22.30
2006,05,18,14,51,22.30
2006,05,18,14,52,22.30
2006,05,18,14,53,22.30
2006,05,18,14,54,22.10
2006,05,18,14,55,22.00
2006,05,18,14,56,22.00
2006,05,18,14,57,22.10
2006,05,18,14,58,22.30
2006,05,18,14,59,22.20
2006,05,18,15,00,22.10
2006,05,18,15,01,22.20
2006,05,18,15,02,22.30
2006,05,18,15,03,22.40
2006,05,18,15,04,22.30
2006,05,18,15,05,22.10
2006,05,18,15,06,22.10
2006,05,18,15,07,22.00
2006,05,18,15,08,21.80
2006,05,18,15,09,21.90
2006,05,18,15,10,22.20
2006,05,18,15,11,22.30
2006,05,18,15,12,22.30
2006,05,18,15,13,22.40
2006,05,18,15,14,22.50
2006,05,18,15,15,22.40
2006,05,18,15,16,22.30
2006,05,18,15,17,22.40
2006,05,18,15,18,22.40
2006,05,18,15,19,22.10
2006,05,18,15,20,21.90
2006,05,18,15,21,21.70
2006,05,18,15,22,21.80
2006,05,18,15,23,21.80
2006,05,18,15,24,21.90
2006,05,18,15,25,22.00
2006,05,18,15,26,22.00
2006,05,18,15,27,21.90
2006,05,18,15,28,21.90
2006,05,18,15,29,21.80
2006,05,18,15,30,21.80
2006,05,18,15,31,21.70
2006,05,18,15,32,21.80
2006,05,18,15,33,21.90
2006,05,18,15,34,22.00
2006,05,18,15,35,22.00
2006,05,18,15,36,21.90
2006,05,18,15,37,21.70
2006,05,18,15,38,21.60
2006,05,18,15,39,21.70
2006,05,18,15,40,21.70
2006,05,18,15,41,22.10
2006,05,18,15,42,22.40
2006,05,18,15,43,22.60
2006,05,18,15,44,22.90
2006,05,18,15,45,23.10
2006,05,18,15,46,23.20
2006,05,18,15,47,23.30
2006,05,18,15,48,23.30
2006,05,18,15,49,23.30
2006,05,18,15,50,23.30
2006,05,18,15,51,23.40
2006,05,18,15,52,23.40
2006,05,18,15,53,23.50
2006,05,18,15,54,23.60
2006,05,18,15,55,23.70
2006,05,18,15,56,23.70
2006,05,18,15,57,23.80
2006,05,18,15,58,23.70
2006,05,18,15,59,23.70
2006,05,18,16,00,23.70
2006,05,18,16,01,23.70
2006,05,18,16,02,23.70
2006,05,18,16,03,23.70
2006,05,18,16,04,23.80
2006,05,18,16,05,23.80
2006,05,18,16,06,23.70
2006,05,18,16,07,23.60
2006,05,18,16,08,23.40
2006,05,18,16,09,23.60
2006,05,18,16,10,23.70
2006,05,18,16,11,23.80
2006,05,18,16,12,24.00
2006,05,18,16,13,24.10
2006,05,18,16,14,24.20
2006,05,18,16,15,24.20
2006,05,18,16,16,24.20
2006,05,18,16,17,24.20
2006,05,18,16,18,24.20
2006,05,18,16,19,24.20
2006,05,18,16,20,24.20
2006,05,18,16,21,24.10
2006,05,18,16,22,24.10
2006,05,18,16,23,24.10
2006,05,18,16,24,24.10
2006,05,18,16,25,24.20
2006,05,18,16,26,24.20
2006,05,18,16,27,24.20
2006,05,18,16,28,24.20
2006,05,18,16,29,24.10
2006,05,18,16,30,24.10
2006,05,18,16,31,24.10
2006,05,18,16,32,24.20
2006,05,18,16,33,24.20
2006,05,18,16,34,24.20
2006,05,18,16,35,24.20
2006,05,18,16,36,24.40
2006,05,18,16,37,24.40
2006,05,18,16,38,24.30
2006,05,18,16,39,24.40
2006,05,18,16,40,24.40
2006,05,18,16,41,24.40
2006,05,18,16,42,24.20
2006,05,18,16,43,24.20
2006,05,18,16,44,24.10
2006,05,18,16,45,24.10
2006,05,18,16,46,24.10
2006,05,18,16,47,24.10
2006,05,18,16,48,24.20
2006,05,18,16,49,24.40
2006,05,18,16,50,24.60
2006,05,18,16,51,24.70
2006,05,18,16,52,24.80
2006,05,18,16,53,24.80
2006,05,18,16,54,24.70
2006,05,18,16,55,24.50
2006,05,18,16,56,24.40
2006,05,18,16,57,24.30
2006,05,18,16,58,24.10
2006,05,18,16,59,24.10
2006,05,18,17,00,23.90
2006,05,18,17,01,23.80
2006,05,18,17,02,23.90
2006,05,18,17,03,23.90
2006,05,18,17,04,23.90
2006,05,18,17,05,24.00
2006,05,18,17,06,24.10
2006,05,18,17,07,24.20
2006,05,18,17,08,24.30
2006,05,18,17,09,24.40
2006,05,18,17,10,24.50
2006,05,18,17,11,24.50
2006,05,18,17,12,24.50
2006,05,18,17,13,24.40
2006,05,18,17,14,24.50
2006,05,18,17,15,24.50
2006,05,18,17,16,24.50
2006,05,18,17,17,24.50
2006,05,18,17,18,24.60
2006,05,18,17,19,24.60